This demonstration page uses our WeatherBlox Daily Observations layout. Learn more.

41.55636, -103.73856

Hourly Observations for August 30, 2016

Temp ( °F °C ) Dew Point ( °F °C ) Humidity (%) Winds ( mph kmh ) Pressure ( in mb ) Visibility ( mi km ) Precip ( " mm )
12:53 am 00:53 Clear 61 16.1 57 13.9 87 87 NE 6 9 30.15 1021 10 16.0934 0 0
1:53 am 01:53 Clear 60 15.6 57 13.9 90 90 W 3 6 30.14 1021 10 16.0934 0 0
2:53 am 02:53 Clear 61 16.1 58 14.4 90 90 Calm 30.13 1020 10 16.0934 0 0
3:53 am 03:53 Clear 59 15 56 13.3 90 90 Calm 30.13 1020 10 16.0934 0 0
4:53 am 04:53 Clear 57 13.9 55 12.8 93 93 Calm 30.14 1021 10 16.0934 0 0
5:53 am 05:53 Clear 57 13.9 54 12.2 90 90 Calm 30.16 1021 9 14.48406 0 0
6:53 am 06:53 Sunny 56 13.3 54 12.2 93 93 NW 5 7 30.19 1022 10 16.0934 0 0
7:53 am 07:53 Sunny 62 16.7 57 13.9 84 84 NW 6 9 30.19 1022 8 12.87472 0 0
8:53 am 08:53 Sunny 66 18.9 57 13.9 73 73 WNW 6 9 30.19 1022 10 16.0934 0 0
9:53 am 09:53 Sunny 68 20 57 13.9 68 68 NNW 6 9 30.19 1022 10 16.0934 0 0
10:53 am 10:53 Sunny 76 24.4 61 16.1 60 60 Calm 30.18 1022 10 16.0934 0 0
11:53 am 11:53 Mostly Sunny 80 26.7 60 15.6 51 51 VRB 6 9 30.16 1021 10 16.0934 0 0
12:53 pm 12:53 Sunny 81 27.2 59 15 47 47 SE 10 17 30.14 1021 10 16.0934 0 0
1:53 pm 13:53 Sunny 83 28.3 56 13.3 40 40 SE 8 13 30.12 1020 10 16.0934 0 0
2:53 pm 14:53 Sunny 85 29.4 54 12.2 35 35 ESE 8 13 30.09 1019 10 16.0934 0 0
3:53 pm 15:53 Sunny 84 28.9 54 12.2 36 36 ESE 9 15 30.09 1019 10 16.0934 0 0
4:24 pm 16:24 Sunny with Nearby Thunderstorms 84 29 52 11 33 33 E 9 15 29.88 1012 10 16.0934 0 0
4:48 pm 16:48 Sunny 84 29 52 11 33 33 SE 12 19 29.88 1012 10 16.0934 0 0
4:53 pm 16:53 Sunny 85 29.4 51 10.6 31 31 SE 13 20 30.08 1019 10 16.0934 0 0
5:53 pm 17:53 Mostly Sunny 82 27.8 52 11.1 35 35 ESE 8 13 30.09 1019 10 16.0934 0 0
6:53 pm 18:53 Sunny 77 25 57 13.9 50 50 SE 14 22 30.11 1020 10 16.0934 0 0
7:53 pm 19:53 Clear 69 20.6 58 14.4 68 68 ESE 8 13 30.13 1020 10 16.0934 0 0
8:53 pm 20:53 Clear 67 19.4 59 15 76 76 E 7 11 30.14 1021 10 16.0934 0 0
9:53 pm 21:53 Clear 64 17.8 59 15 84 84 E 7 11 30.16 1021 10 16.0934 0 0
10:53 pm 22:53 Clear 63 17.2 57 13.9 81 81 E 7 11 30.15 1021 10 16.0934 0 0
11:53 pm 23:53 Clear 61 16.1 56 13.3 84 84 E 6 9 30.15 1021 10 16.0934 0 0

Powered by AerisWeather